Miscellaneous Local Product
Issued by NWS Hastings, NE

Home | Current Version | Previous Version | Text Only | Print | Product List | Glossary Off
Versions: 1 2 3 4 5 6 7 8 9 10 11 12 13 14 15 16 17 18 19 20 21 22 23 24 25 26 27 28 29 30 31 32 33 34 35 36 37 38 39 40 41 42 43 44 45 46 47 48 49 50

000
AXUS43 KGID 011502
MISGRI

GID CWA HOURLY WEATHER ROUNDUP
NATIONAL WEATHER SERVICE HASTINGS NE
1000 AM CDT WED JUL 01 2015

NOTE: "FAIR" INDICATES FEW OR NO CLOUDS BELOW 12,000 FEET WITH NO
SIGNIFICANT WEATHER AND/OR OBSTRUCTIONS TO VISIBILITY.

...SOUTH CENTRAL NEBRASKA...

CITY           SKY/WX    TMP DP  RH WIND       PRES   REMARKS
GRAND ISLAND   CLOUDY    70  64  81 NE13      29.89R
HASTINGS       SUNNY     74  65  73 NE8       29.86R
KEARNEY        MOSUNNY   73  64  73 N13       29.88R
ORD            CLOUDY    69  63  81 NE6       29.89S
YORK           CLOUDY    72  68  88 E13       29.86R
AURORA         CLOUDY    72  67  86 NE9       29.88R
LEXINGTON      SUNNY     75  65  72 N9        29.90R
HOLDREGE       SUNNY     72  64  76 N14       29.87R
HEBRON         SUNNY     79  65  62 E8        29.81R

...NEBRASKA PANHANDLE...

CITY           SKY/WX    TMP DP  RH WIND       PRES   REMARKS
CHADRON        SUNNY     78  63  59 SW7       30.00R
ALLIANCE       SUNNY     79  62  56 N13       30.02R
SCOTTSBLUFF    SUNNY     77  60  55 NW8       30.05S
SIDNEY         SUNNY     81  61  50 N12       30.06S

...WESTERN AND NORTH CENTRAL NEBRASKA...

CITY           SKY/WX    TMP DP  RH WIND       PRES   REMARKS
VALENTINE      SUNNY     78  67  68 NW8       29.91S
AINSWORTH      SUNNY     73  65  77 CALM      29.92R
ONEILL         CLOUDY    71  67  86 S5        29.92S
BROKEN BOW     SUNNY     74  65  73 N7        29.90S
IMPERIAL       SUNNY     85  61  44 N13G18    29.96R
NORTH PLATTE   SUNNY     80  65  59 N10       29.93S
MCCOOK         SUNNY     79  65  62 N9        29.90R HAZE

...EASTERN NEBRASKA...

CITY           SKY/WX    TMP DP  RH WIND       PRES   REMARKS
NORFOLK        PTSUNNY   72  66  81 E8        29.89F HAZE
SO SIOUX CITY  PTSUNNY   70  65  84 E3        29.90R
COLUMBUS       CLOUDY    72  63  73 NE8       29.92R
ALBION         MOSUNNY   73  65  75 SE13      29.88F
OMAHA EPPLEY   PTSUNNY   74  67  78 NE8       29.89R
OFFUTT AFB     MOSUNNY   74  68  80 VRB6      29.88R
MILLARD        MOSUNNY   74  67  78 SE9       29.87F
LINCOLN        CLOUDY    74  68  81 E14       29.87R
NEBRASKA CITY  PTSUNNY   73  68  86 E7        29.89R
BEATRICE       MOSUNNY   77  68  72 E6        29.84S
FALLS CITY     MOSUNNY   75  69  81 NE8       29.84R

...NORTHERN KANSAS...

CITY           SKY/WX    TMP DP  RH WIND       PRES   REMARKS
GOODLAND       SUNNY     81  58  45 N21       29.98R
HILL CITY      PTSUNNY   83  62  49 NW16      29.85R
NORTON         SUNNY     79  61  53 NW15      29.86R
PHILLIPSBURG   SUNNY     84  64  51 N14       29.82R
SMITH CENTER   SUNNY     82  61  47 N8        29.80R
HAYS           CLOUDY    82  55  39 NW14      29.80S
RUSSELL        CLOUDY    84  56  38 NW14      29.78R
CONCORDIA      SUNNY     83  65  54 SE9       29.78S
SALINA         CLOUDY    82  63  52 S10       29.79R
TOPEKA         MOSUNNY   76  69  79 SE15      29.82S



USA.gov is the U.S. government's official web portal to all federal, state and local government web resources and services.